Regional Weather Roundup
Issued by NWS

Home | Current Version | Previous Version | Text Only | Print | Product List | Glossary Off
Versions: 1 2 3 4 5 6 7 8 9 10 11 12 13 14 15 16 17 18 19 20 21 22 23 24 25 26 27 28 29 30 31 32 33 34 35 36 37 38 39 40 41 42 43 44 45 46 47 48 49 50

000
ASUS43 KMKX 191521
RWRWI

WISCONSIN REGIONAL WEATHER ROUNDUP
NATIONAL WEATHER SERVICE MILWAUKEE/SULLIVAN WI
1000 AM CDT FRI SEP 19 2014

NOTE: "FAIR" INDICATES FEW OR NO CLOUDS BELOW 12,000 FEET WITH NO
SIGNIFICANT WEATHER AND/OR OBSTRUCTIONS TO VISIBILITY.

WIZ001-002-006>008-014>016-023>028-191600-
NORTHWEST WISCONSIN

CITY           SKY/WX    TMP DP  RH WIND       PRES   REMARKS
SUPERIOR ARPT  CLOUDY    61  53  74 SW15G25   29.80F
ASHLAND        CLOUDY    61  51  70 S13G28    29.87F
HAYWARD        CLOUDY    62  49  62 S15G28    29.89F
SIREN          CLOUDY    61  51  69 S12G21    29.86F
RICE LAKE      CLOUDY    58  52  80 SE12      29.93F
LADYSMITH      CLOUDY    60  52  75 S10G20    29.98F
EAU CLAIRE     PTSUNNY   60  52  74 S14       29.95F
MENOMONIE      PTSUNNY   62  53  72 SE9       29.94F
NEW RICHMOND   PTSUNNY   64  52  65 S16G22    29.89F
OSCEOLA        PTSUNNY   63  53  68 S14G22    29.89F
$$

WIZ003>005-009-010-017-018-191600-
NORTH CENTRAL WISCONSIN

CITY           SKY/WX    TMP DP  RH WIND       PRES   REMARKS
WOODRUFF       MOSUNNY   59  51  74 S17G24    29.98F
RHINELANDER    MOSUNNY   57  49  74 S17G26    30.02F
EAGLE RIVER    SUNNY     56  49  75 S6G16     29.99F
LAND O LAKES   MOSUNNY   57  49  75 S7G20     29.97F
PHILLIPS       CLOUDY    57  50  78 S14G21    29.97F
TOMAHAWK       MOSUNNY   55  50  85 S8        30.01F
MEDFORD        MOSUNNY   56  51  84 S13G18    30.01F
MERRILL        MOSUNNY   56  50  80 S10G18    30.03F
$$

WIZ029-030-035-036-043>047-191600-
CENTRAL WISCONSIN

CITY           SKY/WX    TMP DP  RH WIND       PRES   REMARKS
WAUSAU         CLOUDY    56  51  84 S14       30.04F
MOSINEE        CLOUDY    54  54 100 S12G17    30.06F FOG
MARSHFIELD     MOSUNNY   56  52  86 S14       30.03F FOG
STEVENS POINT  PTSUNNY   56  50  82 S10G16    30.07F
WAUPACA        PTSUNNY   58  56  96 S9        30.09F FOG
WAUTOMA        MOSUNNY   61  55  80 S7        30.08F
WISC RAPIDS    MOSUNNY   58  53  84 S9        30.07F
CAMP DOUGLAS   MOSUNNY   59  59 100 SE7       30.05F
$$

WIZ011>013-019>022-031-037>040-048>050-191600-
NORTHEAST WISCONSIN

CITY           SKY/WX    TMP DP  RH WIND       PRES   REMARKS
ANTIGO         CLOUDY    52  51  97 S12       30.05F FOG
STURGEON BAY   CLOUDY    61  55  82 S18G26    30.09F
GREEN BAY      MOSUNNY   62  57  83 S15G21    30.08F
MANITOWOC      PTSUNNY   63  58  83 S20       30.12F
APPLETON       MOSUNNY   63  54  72 S15G21    30.09F
CLINTONVILLE   CLOUDY    55  54  94 S13       30.08F
OSHKOSH        SUNNY     62  56  80 S13       30.08F
$$

WIZ032>034-041-042-053>061-191600-
SOUTHWEST WISCONSIN

CITY           SKY/WX    TMP DP  RH WIND       PRES   REMARKS
LA CROSSE      SUNNY     63  52  67 S15G23    30.01F
SPARTA         SUNNY     63  48  59 S9G17     30.04F
VIROQUA        FAIR      60  53  79 S8        30.04F
BOSCOBEL       SUNNY     63  53  70 VRB3      30.07F
PRAIRIE DU CHI SUNNY     61  52  71 SE5       30.05F
PLATTEVILLE    FAIR      60  55  83 S12       30.10S
$$

WIZ056-057-062-063-064-067-068-191600-
SOUTH CENTRAL WISCONSIN

CITY           SKY/WX    TMP DP  RH WIND       PRES   REMARKS
BARABOO/DELLS  SUNNY     60  52  74 S14       30.08F
LONE ROCK      SUNNY     65  54  67 S6        30.08F
WATERTOWN      SUNNY     63  54  70 S10       30.10F
MADISON        MOSUNNY   63  53  70 S14       30.11F
MIDDLETON      FAIR      64  54  70 S8        30.10S
MONROE         SUNNY     61  54  77 S10       30.12R
JANESVILLE     SUNNY     64  52  63 S9        30.12
$$

WIZ051-052-058>065-066-070>072-191600-
SOUTHEAST WISCONSIN

CITY           SKY/WX    TMP DP  RH WIND       PRES   REMARKS
MILWAUKEE      PTSUNNY   65  55  70 S10       30.14F
WAUKESHA       SUNNY     61  54  77 S8        30.15F
MILWAUKEE/TIMM SUNNY     63  52  67 S12       30.15F
RACINE         MOSUNNY   63  54  72 S14G22    30.17F
BURLINGTON     MOSUNNY   62  53  72 S8        30.14F
KENOSHA        SUNNY     64  54  69 S10       30.16S
FOND DU LAC    SUNNY     63  54  72 S12       30.09F
SHEBOYGAN      SUNNY     63  56  78 S14       30.13F
WEST BEND      SUNNY     59  54  82 S9        30.14S
JUNEAU         SUNNY     62  53  72 SE12G17   30.11F
$$

LSZ147-162-191600-
LAKE SUPERIOR

STATION/POSITION TIME  TEMP    WIND        PRES    WAVE
                       AIR SEA DIR/SP/G            HT/PER
                 (UTC) (F)     (DEG/KT/KT) (MB)    (FT/S)
W MID LAKE BUOY  1450   53 48  190/ 16/ 16 1010.8F   3/ 4
DEVILS ISLAND    1500   59     190/ 12/ 16 1009.9F
PORT WING        1403   62     190/ 16/ 32 1010.5F
SAXON HARBOR     1428   61     200/ 14/ 25 1011.2F
$$

LMZ867-665-643>646-191600-
LAKE MICHIGAN

STATION/POSITION TIME  TEMP    WIND        PRES    WAVE
                       AIR SEA DIR/SP/G            HT/PER
                 (UTC) (F)     (DEG/KT/KT) (MB)    (FT/S)
N MID LAKE BUOY  1450   55 58  200/ 21/ 25 1019.4F   4/ 6
NORTHPORT PIER   1501   58     160/  9/ 20 1018.6F
KEWAUNEE LAKESHO 1500   56     180/ 12/ 14 1018.8F
SHEBOYGAN LAKESH 1500   59 51  180/ 18/ 18 1020.4F
PORT WASHINGTON  1400   64     190/  4/  6 1021.3F
ATWATER BUOY     1500   61     170/ 16/ 17 1021.3F
MILWAUKEE LAKESH 1500   60     150/ 14/ 16   N/A
S MID LAKE BUOY  1450   61 65  160/ 17/ 21 1021.3F   4/ 5
KENOSHA   LAKESH 1500   61     170/ 16/ 19 1020.7F
$$

TC  - TEMPERATURE IN CELSIUS
VSB - VISIBILITY IN STATUTE MILES
WCI - WIND CHILL INDEX
HX  - HEAT INDEX



USA.gov is the U.S. government's official web portal to all federal, state and local government web resources and services.